Location: Halberstung
(48.7594°N, 8.1402°E)
Time: 05:41:14
(UTC+00:00)

Daily predictions for brighter satellites

Satellite Brightness Start Highest point End
(mag) Time Altitude Azimuth Time Altitude Azimuth Time Altitude Azimuth
Cosmos 2084 Rocket 3.7 00:00:07 10° NW 00:04:35 74° NE 00:08:10 16° SE
STARLINK-1239 4.2 00:01:45 10° WNW 00:05:22 36° SW 00:05:22 36° SW
STARLINK-41 4.3 00:09:04 27° ESE 00:09:04 27° ESE 00:11:04 10° ENE
ERBS 2.5 00:05:54 10° WNW 00:08:52 49° WSW 00:08:52 49° WSW
Cosmos 1898 Rocket 3.7 00:04:16 10° NNW 00:09:29 56° WSW 00:11:42 32° S
STARLINK-1240 4.4 00:06:45 10° WNW 00:10:07 33° SW 00:10:07 33° SW
Cosmos 1356 Rocket 4.5 00:06:51 10° NNW 00:10:40 33° W 00:11:49 28° SW
Cosmos 2278 4.1 00:09:40 29° S 00:12:18 53° ESE 00:17:49 10° NE
Cosmos 1400 Rocket 4.2 00:08:44 10° N 00:12:35 35° ENE 00:15:19 17° SE
STARLINK-1266 4.4 00:13:28 29° SE 00:13:28 29° SE 00:16:29 10° E
Cosmos 1697 Rocket 2.7 00:10:39 31° SSW 00:13:31 79° ESE 00:19:13 10° NNE
ATLAS CENTAUR R/B 2.5 00:11:05 10° WNW 00:12:31 27° W 00:12:31 27° W
STARLINK-1284 4.3 00:16:34 30° SE 00:16:34 30° SE 00:19:45 10° ENE
Cosmos 372 Rocket 4.3 00:12:59 10° NNW 00:18:07 64° ENE 00:22:10 16° SE
Cosmos 1953 Rocket 4.5 00:16:05 25° SE 00:18:10 40° E 00:22:18 10° NNE
GP-B 4.4 00:14:35 10° NNE 00:18:38 33° E 00:21:22 18° SE
STARLINK-1258 4.2 00:19:42 32° SE 00:19:42 32° SE 00:23:03 10° ENE
Cosmos 1626 Rocket 4.3 00:18:07 28° SW 00:19:53 42° WNW 00:24:05 10° N
Cosmos-2242 3.0 00:15:44 10° N 00:20:00 74° ENE 00:21:59 31° SSE
STARLINK 1040 2.5 00:20:41 71° NNE 00:20:41 71° NNE 00:23:05 10° ENE
STARLINK-1444 3.7 00:20:03 10° NW 00:22:03 34° NNE 00:24:09 10° E
STARLINK-55 3.1 00:22:38 50° SE 00:22:38 50° SE 00:25:44 10° ENE
STARLINK-1452 3.7 00:20:40 10° NW 00:22:40 34° NNE 00:24:45 10° E
STARLINK-1292 4.1 00:22:49 34° SSE 00:22:56 34° SE 00:26:20 10° ENE
Cosmos 2227 Rocket 3.1 00:18:05 10° NW 00:23:07 33° WSW 00:25:05 26° SW
STARLINK-1450 3.7 00:21:57 10° NW 00:23:55 34° NNE 00:25:56 10° E
STARLINK-1436 (VISORSAT) 3.7 00:21:57 10° NW 00:23:57 34° NNE 00:26:01 10° E
STARLINK-1392 3.7 00:22:04 10° NW 00:24:01 34° NNE 00:26:04 10° E
STARLINK-1398 3.7 00:22:02 10° NW 00:24:02 35° NNE 00:26:07 10° E
STARLINK-1399 3.7 00:22:05 10° NW 00:24:02 34° NNE 00:26:05 10° E
STARLINK-1415 3.7 00:22:06 10° NW 00:24:03 34° NNE 00:26:05 10° E
STARLINK-1414 3.7 00:22:04 10° NW 00:24:03 34° NNE 00:26:07 10° E
STARLINK-1394 3.7 00:22:06 10° NW 00:24:03 34° NNE 00:26:06 10° E
STARLINK-1395 3.7 00:22:06 10° NW 00:24:03 34° NNE 00:26:06 10° E
STARLINK-1393 3.7 00:22:06 10° NW 00:24:03 34° NNE 00:26:06 10° E
STARLINK-1416 3.7 00:22:04 10° NW 00:24:03 34° NNE 00:26:08 10° E
STARLINK-1396 3.7 00:22:07 10° NW 00:24:04 34° NNE 00:26:07 10° E
STARLINK-1397 3.7 00:22:07 10° NW 00:24:04 34° NNE 00:26:07 10° E
STARLINK-1401 3.7 00:22:07 10° NW 00:24:04 34° NNE 00:26:07 10° E
STARLINK-1408 3.7 00:22:06 10° NW 00:24:05 34° NNE 00:26:09 10° E
STARLINK-1404 3.7 00:22:08 10° NW 00:24:05 34° NNE 00:26:08 10° E
STARLINK-1419 3.7 00:22:06 10° NW 00:24:05 35° NNE 00:26:10 10° E
STARLINK-1453 3.7 00:22:08 10° NW 00:24:05 34° NNE 00:26:08 10° E
STARLINK-1402 3.7 00:22:09 10° NW 00:24:06 34° NNE 00:26:08 10° E
STARLINK-1417 3.7 00:22:09 10° NW 00:24:06 34° NNE 00:26:08 10° E
STARLINK-1413 3.7 00:22:10 10° NW 00:24:07 34° NNE 00:26:09 10° E
STARLINK-1420 3.7 00:22:08 10° NW 00:24:07 35° NNE 00:26:12 10° E
STARLINK-1406 3.7 00:22:10 10° NW 00:24:08 34° NNE 00:26:09 10° E
STARLINK-1422 3.7 00:22:09 10° NW 00:24:09 35° NNE 00:26:13 10° E
STARLINK-1460 3.7 00:22:09 10° NW 00:24:09 35° NNE 00:26:13 10° E
STARLINK-1458 3.7 00:22:10 10° NW 00:24:09 35° NNE 00:26:13 10° E
STARLINK-1440 3.7 00:22:12 10° NW 00:24:09 34° NNE 00:26:11 10° E
STARLINK-1445 3.7 00:22:13 10° NW 00:24:10 34° NNE 00:26:12 10° E
STARLINK-1443 3.7 00:22:14 10° NW 00:24:11 34° NNE 00:26:13 10° E
STARLINK-1454 3.7 00:22:14 10° NW 00:24:11 34° NNE 00:26:13 10° E
STARLINK-1437 3.7 00:22:12 10° NW 00:24:11 35° NNE 00:26:15 10° E
STARLINK-1457 3.7 00:22:15 10° NW 00:24:12 34° NNE 00:26:14 10° E
STARLINK-1456 3.7 00:22:15 10° NW 00:24:13 34° NNE 00:26:14 10° E
STARLINK-1451 3.7 00:22:15 10° NW 00:24:13 34° NNE 00:26:15 10° E
STARLINK-1446 3.7 00:22:13 10° NW 00:24:13 35° NNE 00:26:17 10° E
STARLINK-1442 3.7 00:22:17 10° NW 00:24:14 34° NNE 00:26:16 10° E
STARLINK-1447 3.7 00:22:16 10° NW 00:24:16 35° NNE 00:26:20 10° E
STARLINK-1455 3.7 00:22:16 10° NW 00:24:16 35° NNE 00:26:20 10° E
STARLINK-1405 3.7 00:22:19 10° NW 00:24:16 34° NNE 00:26:18 10° E
STARLINK-1421 3.7 00:22:19 10° NW 00:24:16 34° NNE 00:26:18 10° E
STARLINK-1423 3.7 00:22:17 10° NW 00:24:16 35° NNE 00:26:21 10° E
STARLINK-1441 3.7 00:22:17 10° NW 00:24:17 35° NNE 00:26:21 10° E
STARLINK-1400 3.7 00:22:19 10° NW 00:24:17 34° NNE 00:26:19 10° E
STARLINK-1410 3.7 00:22:19 10° NW 00:24:17 34° NNE 00:26:19 10° E
STARLINK-1407 3.7 00:22:20 10° NW 00:24:17 34° NNE 00:26:19 10° E
STARLINK-1439 3.7 00:22:20 10° NW 00:24:18 34° NNE 00:26:20 10° E
STARLINK-1449 3.7 00:22:18 10° NW 00:24:18 35° NNE 00:26:23 10° E
STARLINK-1448 3.7 00:22:18 10° NW 00:24:18 35° NNE 00:26:23 10° E
STARLINK-1409 3.7 00:22:21 10° NW 00:24:18 34° NNE 00:26:20 10° E
STARLINK-1351 3.7 00:22:22 10° NW 00:24:19 34° NNE 00:26:21 10° E
STARLINK-1370 3.7 00:22:22 10° NW 00:24:19 34° NNE 00:26:21 10° E
STARLINK-1418 3.7 00:22:22 10° NW 00:24:19 34° NNE 00:26:22 10° E
STARLINK-1434 3.7 00:22:22 10° NW 00:24:19 34° NNE 00:26:22 10° E
STARLINK-1403 3.7 00:22:23 10° NW 00:24:20 34° NNE 00:26:22 10° E
STARLINK-1433 3.7 00:22:24 10° NW 00:24:21 34° NNE 00:26:24 10° E
STARLINK-1411 3.7 00:22:26 10° NW 00:24:23 34° NNE 00:26:25 10° E
STARLINK-1438 3.7 00:22:26 10° NW 00:24:23 34° NNE 00:26:25 10° E
STARLINK-1412 3.7 00:22:26 10° NW 00:24:25 35° NNE 00:26:31 10° E
Resurs 1-4 Rocket 3.4 00:20:35 10° NNE 00:25:17 31° E 00:28:43 16° SSE
STARLINK-1301 4.0 00:25:24 36° SSE 00:25:47 37° SE 00:29:21 10° ENE
Uosat 12 SS-18 rocket 4.1 00:22:38 10° NW 00:26:53 59° SW 00:28:52 30° SSE
STARLINK-1283 4.1 00:27:36 37° S 00:28:25 42° SE 00:32:17 10° ENE
Cosmos 1814 Rocket 4.2 00:26:04 29° S 00:28:43 63° ESE 00:33:58 10° NNE
STARLINK-1289 3.9 00:29:04 36° SSE 00:29:25 37° SE 00:32:54 10° ENE
IRAS Rocket 4.2 00:26:35 23° SSE 00:30:08 87° WSW 00:35:43 10° NNW
STARLINK-29 4.2 00:29:11 10° WNW 00:32:16 43° NNE 00:35:22 10° E
STARLINK-1303 3.9 00:32:15 38° SSE 00:32:43 39° SE 00:36:14 10° ENE
STARLINK-28 2.9 00:33:31 55° SSW 00:33:58 65° SSE 00:37:09 10° ENE
STARLINK-26 3.1 00:33:53 48° SSW 00:34:34 62° SSE 00:37:59 10° ENE
STARLINK-1312 3.8 00:35:26 38° S 00:36:01 42° SE 00:39:34 10° ENE
Cosmos 1125 Rocket 4.4 00:34:17 10° NNW 00:39:19 47° ENE 00:44:21 10° SE
SL-16 R/B 3.8 00:36:40 13° SSE 00:40:18 24° ESE 00:44:44 10° NE
UNK 4.4 00:36:34 14° SE 00:40:19 52° ENE 00:44:47 10° N
Cosmos 841 Rocket 3.4 00:37:44 29° SSW 00:40:30 89° ESE 00:45:45 10° NNE
Cosmos 1570 Rocket 4.0 00:39:09 28° SSW 00:42:03 80° WNW 00:47:22 10° NNE
GEOS 3 Rocket 4.3 00:37:48 10° ESE 00:42:53 56° NE 00:48:06 10° NW
Helios 1B rocket 3.3 00:39:48 10° N 00:43:40 39° WNW 00:45:37 24° WSW
CZ-4C R/B 3.9 00:42:54 19° SSE 00:46:00 66° ENE 00:50:24 10° N
STARLINK-80 3.6 00:45:27 37° SSW 00:46:32 52° SSE 00:50:15 10° ENE
Cosmos 1315 Rocket 4.5 00:43:19 10° N 00:46:49 30° ENE 00:50:20 10° SE
BREEZE M DEB (TANK) 4.4 00:49:07 18° SE 00:49:07 18° SE 00:50:47 10° SE
STARLINK-33 2.7 00:47:57 47° SW 00:48:42 74° SSE 00:51:49 10° ENE
CZ-4C R/B 2.7 00:44:45 17° WSW 00:48:46 58° NW 00:54:56 10° NE
Cosmos 1763 Rocket 4.1 00:45:56 21° SW 00:49:03 45° WNW 00:53:56 10° NNE
Cosmos 2298 Rocket 4.0 00:43:46 10° NNW 00:49:06 89° WSW 00:53:21 16° SSE
CZ-2D R/B 2.7 00:47:56 10° NNE 00:53:01 49° E 00:56:32 19° SSE
Cosmos 1825 Rocket 3.7 00:51:55 29° SSW 00:53:57 60° WNW 00:58:17 10° N
Cosmos 2184 Rocket 4.3 00:49:34 18° SSE 00:54:04 60° E 01:00:09 10° NNE
Meteor 2-10 Rocket 4.4 00:52:43 10° NNW 00:57:19 34° W 00:59:33 23° SW
STARLINK-1335 4.5 00:55:30 10° WNW 00:58:27 36° N 01:01:23 10° ENE
STARLINK-1327 4.5 00:55:51 10° WNW 00:58:47 36° N 01:01:44 10° ENE
STARLINK-1340 4.5 00:56:12 10° WNW 00:59:08 37° N 01:02:05 10° ENE
STARLINK-1356 4.5 00:56:32 10° WNW 00:59:29 37° N 01:02:25 10° ENE
Cosmos 2208 Rocket 4.2 00:56:35 24° SW 00:59:45 70° WNW 01:05:08 10° NNE
STARLINK-1345 4.5 00:56:52 10° WNW 00:59:49 37° N 01:02:45 10° ENE
STARLINK-1355 4.5 00:57:12 10° WNW 01:00:09 37° N 01:03:05 10° ENE
STARLINK-1321 4.5 00:57:31 10° WNW 01:00:28 37° N 01:03:24 10° ENE
STARLINK-1358 4.5 00:57:54 10° WNW 01:00:51 37° N 01:03:47 10° ENE
STARLINK-1332 4.5 00:58:12 10° WNW 01:01:09 37° N 01:04:06 10° ENE
STARLINK-1348 4.5 00:58:32 10° WNW 01:01:29 37° N 01:04:26 10° ENE
STARLINK-1330 4.5 00:58:54 10° WNW 01:01:51 37° N 01:04:47 10° ENE
STARLINK-1297 3.3 01:00:39 34° SW 01:01:57 60° SSE 01:05:28 10° ENE
STARLINK-1363 4.5 00:59:12 10° WNW 01:02:09 37° N 01:05:06 10° ENE
STARLINK-1337 4.5 00:59:34 10° WNW 01:02:31 37° N 01:05:28 10° ENE
STARLINK-66 2.8 01:01:11 30° WSW 01:02:36 88° NNW 01:05:50 10° ENE
STARLINK-1342 4.5 00:59:55 10° WNW 01:02:52 37° N 01:05:49 10° ENE
Lacrosse 4 Rocket 3.0 00:59:58 10° WNW 01:02:58 19° WSW 01:03:15 18° WSW
STARLINK-1364 4.5 01:00:16 10° WNW 01:03:13 37° N 01:06:10 10° ENE
STARLINK-1376 4.5 01:00:36 10° WNW 01:03:32 37° N 01:06:29 10° ENE
STARLINK-1360 4.5 01:00:56 10° WNW 01:03:53 37° N 01:06:50 10° ENE
Cosmos 2360 Rocket 4.4 01:00:49 10° SE 01:04:09 16° E 01:07:31 10° ENE
STARLINK-1361 4.5 01:01:17 10° WNW 01:04:14 37° N 01:07:11 10° ENE
STARLINK-1367 4.5 01:01:34 10° WNW 01:04:33 38° N 01:07:32 10° ENE
STARLINK-1366 4.5 01:01:57 10° WNW 01:04:54 37° N 01:07:51 10° ENE
STARLINK-1268 2.8 01:04:05 39° SW 01:05:03 69° SSE 01:08:07 10° ENE
STARLINK-52 3.6 01:04:38 10° WNW 01:07:49 56° NNE 01:10:58 10° E
STARLINK-58 3.1 01:07:07 38° SSW 01:08:01 54° SSE 01:11:08 10° ENE
Cosmos 1328 4.4 01:06:19 26° SW 01:08:09 44° WNW 01:12:00 10° N
Timation 1 Rocket 4.4 01:02:32 10° NW 01:08:27 63° WSW 01:13:39 13° SSE
STARLINK-1316 2.8 01:07:38 36° SW 01:08:46 74° SSE 01:11:53 10° ENE
STARLINK-1257 2.8 01:08:29 35° SW 01:09:39 75° SSE 01:12:47 10° ENE
STARLINK-1256 2.7 01:09:23 34° SW 01:10:35 76° SSE 01:13:42 10° ENE
Cosmos 1980 Rocket 2.3 01:07:19 22° SW 01:11:03 72° WNW 01:16:44 10° NNE
Cosmos 2181 Rocket 4.4 01:04:53 10° NNW 01:11:07 53° W 01:15:26 20° SSW
STARLINK-1213 2.7 01:10:16 33° SW 01:11:29 77° SSE 01:14:37 10° ENE
STARLINK-1263 2.7 01:11:07 33° SW 01:12:23 78° SSE 01:15:31 10° ENE
STARLINK-1259 2.7 01:12:00 32° SW 01:13:18 79° SSE 01:16:25 10° ENE
STARLINK-1265 2.8 01:12:24 31° SW 01:13:43 80° SSE 01:16:53 10° ENE
STARLINK-75 2.9 01:12:04 25° WSW 01:13:49 83° NNW 01:17:04 10° ENE
STARLINK-1285 2.7 01:12:51 31° WSW 01:14:11 80° SSE 01:17:19 10° ENE
Cosmos 1455 3.9 01:13:00 10° NW 01:15:35 18° W 01:16:35 16° WSW
Meteor 1-11 4.2 01:11:52 22° SSW 01:15:36 78° WNW 01:21:13 10° N
STARLINK-1296 2.7 01:14:36 30° WSW 01:16:00 83° SSE 01:19:07 10° ENE
STARLINK-1260 2.7 01:15:26 29° WSW 01:16:52 84° SSE 01:20:00 10° ENE
STARLINK-1317 3.3 01:15:01 23° WSW 01:17:20 80° SSE 01:21:12 10° ENE
USA 215 4.0 01:13:42 18° S 01:17:22 29° SW 01:22:57 10° WNW
STARLINK-1307 3.2 01:15:22 25° SW 01:17:22 76° SSE 01:21:03 10° ENE
Cosmos 1703 4.4 01:15:39 21° WSW 01:17:32 32° WNW 01:21:07 10° N
STARLINK-1318 2.7 01:16:19 29° WSW 01:17:47 85° SSE 01:20:55 10° ENE
STARLINK-1275 2.7 01:17:11 28° WSW 01:18:42 86° SSE 01:21:50 10° ENE
STARLINK-1309 2.8 01:18:05 28° WSW 01:19:36 87° SSE 01:22:44 10° ENE
STARLINK-1282 2.8 01:18:56 27° WSW 01:20:30 88° SSE 01:23:38 10° ENE
STARLINK-1290 3.2 01:18:36 24° WSW 01:20:43 80° SSE 01:24:24 10° ENE
SL-4 R/B 2.3 01:16:13 10° WNW 01:21:03 72° SSW 01:25:42 10° ESE
STARLINK-1313 2.8 01:19:53 24° WSW 01:21:36 84° NNW 01:24:45 10° ENE
STARLINK-1272 3.1 01:19:57 23° WSW 01:22:01 83° SSE 01:25:34 10° ENE
STARLINK-22 2.9 01:20:24 24° WSW 01:22:14 86° NNW 01:25:27 10° ENE
BREEZE-M DEB (TANK) 1.7 01:22:09 43° SSW 01:22:29 51° SSE 01:25:06 10° E
STARLINK-1279 2.8 01:20:47 24° WSW 01:22:32 83° NNW 01:25:40 10° ENE
FALCON 9 DEB 3.9 01:19:31 10° WNW 01:22:54 54° NNE 01:26:19 10° E
STARLINK-1298 2.8 01:21:30 25° WSW 01:23:10 89° NNW 01:26:18 10° ENE
STARLINK-1293 2.8 01:22:22 24° WSW 01:24:04 88° NNW 01:27:12 10° ENE
STARLINK-1299 4.5 01:23:39 22° SSW 01:25:43 37° SE 01:29:39 10° ENE
STARLINK-1255 2.8 01:24:07 23° WSW 01:25:54 86° NNW 01:29:02 10° ENE
Cosmos 2263 Rocket 2.1 01:21:46 10° NNW 01:27:20 68° WSW 01:32:51 10° SSE
Cosmos 540 Rocket 4.2 01:23:50 17° SW 01:27:25 43° WNW 01:32:19 10° NNE
Cosmos 2154 Rocket 4.2 01:22:43 14° S 01:28:11 70° E 01:34:23 10° NNE
SL-16 R/B 2.6 01:24:14 15° S 01:29:22 60° WSW 01:35:31 10° NNW
MOZ.5/SAFIR/RUBIN 5/SL-8 4.3 01:28:03 21° SSW 01:30:45 41° W 01:35:10 10° NNW
Meteor 2-17 Rocket 4.5 01:26:22 16° S 01:31:26 84° E 01:37:34 10° N
Cosmos 1076 Rocket 4.5 01:28:01 11° SSE 01:31:54 44° E 01:36:05 10° NNE
STARLINK-1291 3.3 01:32:10 17° WSW 01:34:55 84° NNW 01:38:37 10° ENE
STARLINK-43 4.2 01:31:31 10° W 01:35:06 48° NNW 01:38:42 10° ENE
STARLINK-60 3.0 01:33:15 10° WNW 01:36:23 52° SSW 01:39:29 10° SE
ADEOS II 2.8 01:31:18 10° NNE 01:36:24 48° E 01:41:29 10° S
STARLINK-1311 3.0 01:34:29 17° WSW 01:36:36 65° NNW 01:39:33 10° ENE
Cosmos 1869 3.1 01:33:06 10° N 01:37:00 86° W 01:40:19 14° S
STARLINK-42 3.4 01:34:42 14° W 01:37:19 59° NNW 01:40:26 10° ENE
STARLINK-1029 2.8 01:35:35 24° SW 01:37:21 71° SSE 01:40:31 10° ENE
NPP 3.7 01:32:11 10° NNE 01:37:37 83° WNW 01:41:55 17° SSW
STARLINK-1264 3.3 01:35:13 16° WSW 01:38:04 81° NNW 01:41:46 10° ENE
STARLINK-1273 4.4 01:36:09 20° SSW 01:38:28 38° SE 01:42:19 10° ENE
Cosmos 1892 3.3 01:37:00 13° S 01:40:12 51° E 01:43:54 10° NNE
STARLINK-1274 3.3 01:38:05 15° WSW 01:40:53 77° NNW 01:44:27 10° ENE
CZ-4B R/B 3.6 01:35:48 10° NNE 01:41:05 90° NNW 01:45:27 15° SSW
STARLINK-1267 3.4 01:38:16 15° WSW 01:41:16 78° NNW 01:44:58 10° ENE
STARLINK-34 2.8 01:40:11 19° WSW 01:42:14 85° NNW 01:45:19 10° ENE
STARLINK-1390 4.5 01:39:24 10° WNW 01:43:19 50° N 01:47:13 10° E
STARLINK-1288 4.3 01:40:56 19° SSW 01:43:25 40° SE 01:47:19 10° ENE
ERS-2 4.2 01:40:24 10° SE 01:43:34 28° ENE 01:46:45 10° N
STARLINK-41 3.4 01:41:02 12° W 01:43:47 56° NNW 01:46:51 10° ENE
STARLINK-62 2.8 01:42:25 18° WSW 01:44:36 83° NNW 01:47:44 10° ENE
IRS-1D 3.7 01:40:48 10° NNE 01:46:06 72° ESE 01:50:50 12° S
STARLINK-1365 4.5 01:43:27 10° WNW 01:47:25 52° NNE 01:51:22 10° E
STARLINK-1207 3.5 01:44:27 13° WSW 01:47:43 73° NNW 01:51:26 10° ENE
STARLINK-1308 4.2 01:45:44 19° SSW 01:48:24 44° SE 01:52:21 10° ENE
Cosmos 1400 Rocket 4.3 01:45:34 10° NW 01:48:52 23° W 01:50:54 16° SW
Cosmos 2322 Rocket 2.5 01:44:19 14° SSW 01:49:02 64° ESE 01:54:37 10° NNE
BREEZE-M R/B 2.5 01:46:11 10° W 01:50:37 78° N 01:53:18 10° E
STARLINK-1266 3.5 01:47:33 12° WSW 01:50:58 71° NNW 01:54:40 10° ENE
In-Cosmos 22 Rocket 4.3 01:46:06 12° S 01:51:22 76° E 01:56:51 10° NNE
Nadezhda 3 Rocket 4.1 01:45:49 10° NNW 01:52:07 72° W 01:58:26 10° S
STARLINK-64 3.3 01:50:05 18° SW 01:52:36 67° SSE 01:56:11 10° ENE
STARLINK-1284 3.6 01:50:39 11° WSW 01:54:13 68° NNW 01:57:55 10° ENE
ARIANE 5 R/B 3.5 01:49:42 10° NNE 01:54:29 41° E 01:59:11 10° S
STARLINK 1040 4.3 01:52:23 10° WNW 01:54:42 30° N 01:57:02 10° ENE
STARLINK-1444 2.6 01:53:45 10° WNW 01:55:50 34° SSW 01:57:59 10° SE
GP-B 4.3 01:52:05 10° NNW 01:55:51 28° WNW 01:58:49 14° SW
STARLINK-61 4.3 01:53:22 17° SSW 01:55:56 37° SE 01:59:35 10° ENE
STARLINK-1452 2.6 01:54:23 10° WNW 01:56:26 34° SSW 01:58:36 10° SE
STARLINK-1258 3.6 01:53:48 10° WSW 01:57:28 66° NNW 02:01:12 10° ENE
STARLINK-1450 2.6 01:55:39 10° W 01:57:38 32° SSW 01:59:43 10° SE
STARLINK-1436 (VISORSAT) 2.7 01:55:41 10° W 01:57:43 33° SSW 01:59:50 10° SE
STARLINK-1392 2.6 01:55:45 10° W 01:57:45 32° SSW 01:59:52 10° SE
STARLINK-1399 2.6 01:55:46 10° W 01:57:46 32° SSW 01:59:52 10° SE
STARLINK-1415 2.6 01:55:47 10° W 01:57:47 32° SSW 01:59:53 10° SE
STARLINK-1394 2.6 01:55:47 10° W 01:57:47 32° SSW 01:59:53 10° SE
STARLINK-1395 2.6 01:55:47 10° W 01:57:47 32° SSW 01:59:53 10° SE
STARLINK-1414 2.7 01:55:45 10° W 01:57:47 33° SSW 01:59:55 10° SE
STARLINK-1393 2.6 01:55:47 10° W 01:57:48 32° SSW 01:59:54 10° SE
STARLINK-1398 2.7 01:55:45 10° W 01:57:48 33° SSW 01:59:56 10° SE
STARLINK-1396 2.6 01:55:48 10° W 01:57:48 32° SSW 01:59:54 10° SE
STARLINK-1416 2.7 01:55:46 10° W 01:57:48 33° SSW 01:59:56 10° SE
STARLINK-1397 2.6 01:55:48 10° W 01:57:48 32° SSW 01:59:54 10° SE
STARLINK-1401 2.6 01:55:48 10° W 01:57:48 32° SSW 01:59:54 10° SE
STARLINK-1404 2.6 01:55:49 10° W 01:57:50 32° SSW 01:59:55 10° SE
STARLINK-1453 2.6 01:55:50 10° W 01:57:50 32° SSW 01:59:55 10° SE
STARLINK-1408 2.7 01:55:47 10° W 01:57:50 33° SSW 01:59:57 10° SE
STARLINK-1419 2.7 01:55:48 10° W 01:57:50 33° SSW 01:59:58 10° SE
STARLINK-1402 2.6 01:55:51 10° W 01:57:51 32° SSW 01:59:57 10° SE
STARLINK-1417 2.6 01:55:51 10° W 01:57:51 32° SSW 01:59:57 10° SE
STARLINK-1413 2.6 01:55:52 10° W 01:57:52 32° SSW 01:59:58 10° SE
STARLINK-1406 2.6 01:55:52 10° W 01:57:52 32° SSW 01:59:58 10° SE
STARLINK-1420 2.7 01:55:51 10° W 01:57:53 33° SSW 02:00:01 10° SE
STARLINK-1440 2.6 01:55:54 10° W 01:57:54 32° SSW 02:00:00 10° SE
STARLINK-1422 2.7 01:55:52 10° W 01:57:54 33° SSW 02:00:02 10° SE
STARLINK-1445 2.6 01:55:55 10° W 01:57:55 32° SSW 02:00:01 10° SE
STARLINK-1460 2.7 01:55:52 10° W 01:57:55 33° SSW 02:00:03 10° SE
STARLINK-1458 2.7 01:55:53 10° W 01:57:55 33° SSW 02:00:03 10° SE
STARLINK-1443 2.6 01:55:56 10° W 01:57:55 32° SSW 02:00:01 10° SE
STARLINK-1454 2.6 01:55:56 10° W 01:57:56 32° SSW 02:00:01 10° SE
STARLINK-1457 2.6 01:55:57 10° W 01:57:56 32° SSW 02:00:01 10° SE
STARLINK-1456 2.6 01:55:57 10° W 01:57:57 32° SSW 02:00:02 10° SE
STARLINK-1451 2.6 01:55:57 10° W 01:57:57 32° SSW 02:00:02 10° SE
STARLINK-1437 2.7 01:55:56 10° W 01:57:58 33° SSW 02:00:05 10° SE
STARLINK-1442 2.6 01:55:59 10° W 01:57:58 32° SSW 02:00:03 10° SE
STARLINK-1278 3.9 01:54:46 16° SW 01:57:59 57° SSE 02:02:10 10° ENE
STARLINK-1446 2.7 01:55:57 10° W 01:57:59 33° SSW 02:00:07 10° SE
STARLINK-1405 2.6 01:56:01 10° W 01:58:01 32° SSW 02:00:06 10° SE
STARLINK-1421 2.7 01:56:01 10° W 01:58:01 32° SSW 02:00:06 10° SE
STARLINK-1400 2.6 01:56:02 10° W 01:58:01 32° SSW 02:00:06 10° SE
STARLINK-1410 2.6 01:56:02 10° W 01:58:01 32° SSW 02:00:06 10° SE
STARLINK-1439 2.7 01:56:03 10° W 01:58:02 32° SSW 02:00:07 10° SE
STARLINK-1407 2.7 01:56:02 10° W 01:58:02 32° SSW 02:00:07 10° SE
STARLINK-1423 2.7 01:56:00 10° W 01:58:02 33° SSW 02:00:09 10° SE
STARLINK-1455 2.7 01:56:00 10° W 01:58:02 33° SSW 02:00:10 10° SE
STARLINK-1447 2.7 01:55:59 10° W 01:58:02 33° SSW 02:00:10 10° SE
STARLINK-1441 2.7 01:56:01 10° W 01:58:03 33° SSW 02:00:11 10° SE
STARLINK-1409 2.7 01:56:03 10° W 01:58:03 32° SSW 02:00:08 10° SE
STARLINK-1351 2.7 01:56:04 10° W 01:58:04 32° SSW 02:00:09 10° SE
STARLINK-1370 2.7 01:56:04 10° W 01:58:04 32° SSW 02:00:09 10° SE
STARLINK-1418 2.7 01:56:04 10° W 01:58:04 32° SSW 02:00:09 10° SE
STARLINK-1434 2.7 01:56:04 10° W 01:58:04 32° SSW 02:00:09 10° SE
STARLINK-1448 2.7 01:56:02 10° W 01:58:04 33° SSW 02:00:12 10° SE
STARLINK-1449 2.7 01:56:02 10° W 01:58:05 33° SSW 02:00:13 10° SE
STARLINK-1403 2.7 01:56:05 10° W 01:58:05 32° SSW 02:00:10 10° SE
STARLINK-1433 2.7 01:56:06 10° W 01:58:06 32° SSW 02:00:11 10° SE
STARLINK-1411 2.7 01:56:08 10° W 01:58:07 32° SSW 02:00:13 10° SE
STARLINK-1438 2.7 01:56:08 10° W 01:58:08 32° SSW 02:00:13 10° SE
Cosmos 1697 Rocket 4.4 01:53:37 10° W 01:58:09 24° NW 02:02:42 10° N
STARLINK-1412 2.7 01:56:10 10° W 01:58:12 33° SSW 02:00:20 10° SE
STARLINK-1304 4.0 01:55:17 17° SW 01:58:18 50° SE 02:02:19 10° ENE
STARLINK-55 3.9 01:55:38 10° W 01:58:44 45° NNW 02:01:51 10° ENE
NOSS 2-1 (C) 2.9 01:56:56 17° SW 01:59:25 90° WSW 02:03:07 10° NE
STARLINK-1280 3.9 01:56:32 16° SW 01:59:49 59° SSE 02:04:01 10° ENE
Cosmos 2221 3.0 01:56:04 10° NNW 02:00:15 45° W 02:04:00 12° SSW
STARLINK-1292 3.7 01:57:04 10° WSW 02:00:45 64° NNW 02:04:28 10° ENE
USA 229 DEB 4.1 01:53:58 10° NW 02:00:58 52° WSW 02:08:17 10° SSE
USA 229 4.0 01:54:03 10° NW 02:01:05 53° WSW 02:08:24 10° SSE
NOSS 3-1 (C) 4.3 01:55:11 10° NW 02:02:26 50° WSW 02:10:38 10° SSE
Cosmos 1842 Rocket 4.3 01:58:32 10° NNW 02:02:39 36° W 02:06:07 13° SSW
STARLINK-1338 4.2 01:59:16 10° WNW 02:03:10 56° NNE 02:07:04 10° E
STARLINK-1301 3.8 02:00:14 10° W 02:04:01 62° NNW 02:07:50 10° ENE
NOSS 2-1 (D) 3.0 02:01:40 16° SW 02:04:18 81° NW 02:08:01 10° NE
Resurs 1-4 Rocket 2.8 02:00:14 10° N 02:05:14 43° WNW 02:09:47 12° SW
BREEZE-M DEB (TANK) 1.0 02:04:57 10° WNW 02:07:14 89° SW 02:10:13 10° ESE
STARLINK-1289 3.8 02:03:37 10° W 02:07:19 60° NNW 02:11:01 10° ENE
STARLINK-1283 4.0 02:03:38 10° W 02:07:41 61° NNW 02:11:46 10° ENE
STARLINK-29 2.9 02:05:21 10° WNW 02:08:30 55° SSW 02:11:37 10° SE
AQUA 4.3 02:05:10 10° N 02:09:47 50° WNW 02:14:00 12° SW
NOSS 3-1 (A) 4.1 02:02:43 10° NW 02:10:08 63° SW 02:18:37 10° SSE
STARLINK-28 4.1 02:07:08 10° W 02:10:13 41° N 02:13:17 10° ENE
STARLINK-1303 3.9 02:06:57 10° W 02:10:38 59° NNW 02:14:20 10° ENE
STARLINK-1371 4.1 02:07:25 10° WNW 02:11:20 60° NNE 02:15:15 10° E
STARLINK-26 4.2 02:08:19 10° W 02:11:38 45° NNW 02:14:58 10° ENE
STARLINK-1286 3.8 02:09:41 13° SW 02:13:18 64° SSE 02:17:27 10° ENE
STARLINK-1312 3.9 02:10:17 10° W 02:13:58 57° NNW 02:17:40 10° ENE
STARLINK-1341 4.1 02:11:33 10° WNW 02:15:28 62° NNE 02:19:22 10° E
STARLINK-48 3.5 02:13:08 10° WSW 02:17:02 80° NNW 02:20:57 10° ENE
Cosmos 1825 2.8 02:14:03 10° S 02:17:44 56° E 02:21:26 10° NNE
STARLINK-1281 3.7 02:14:25 12° SW 02:18:10 66° SSE 02:22:18 10° ENE
Cosmos 1408 2.6 02:14:42 10° S 02:18:24 87° E 02:22:06 10° N
STARLINK-1374 4.0 02:15:39 10° WNW 02:19:35 64° NNE 02:23:30 10° E
GEOS 3 Rocket 4.2 02:16:25 10° S 02:21:07 35° WSW 02:25:56 10° NW
Cosmos 1844 Rocket 2.9 02:16:44 10° NNW 02:22:23 79° ENE 02:27:57 10° SSE
STARLINK-1310 3.7 02:19:11 11° SW 02:23:07 71° SSE 02:27:16 10° ENE
Cosmos 1315 Rocket 4.1 02:20:03 10° NW 02:23:16 24° W 02:26:25 10° SW
STARLINK-1339 3.9 02:19:48 10° WNW 02:23:44 66° NNE 02:27:40 10° ESE
SL-16 R/B 2.4 02:18:32 11° SW 02:23:57 64° WNW 02:29:37 10° NNE
STARLINK-33 4.2 02:21:43 10° W 02:24:40 39° N 02:27:38 10° ENE
STARLINK-80 4.1 02:21:06 10° W 02:24:50 52° NNW 02:28:34 10° ENE
IRS-P3 4.2 02:20:42 10° NNE 02:26:03 77° WNW 02:31:21 10° SSW
Shenzhou-11 Module 3.0 02:24:52 13° SW 02:26:18 20° S 02:28:12 10° SE
CZ-4B R/B 4.4 02:25:33 10° ESE 02:27:28 15° ENE 02:29:25 10° NNE
STARLINK-1320 3.0 02:24:38 10° WNW 02:27:45 79° NNE 02:30:52 10° ESE
STARLINK-1377 3.9 02:23:58 10° WNW 02:27:55 69° NNE 02:31:51 10° ESE
Cosmos 2058 3.5 02:23:57 10° SSW 02:27:55 45° WNW 02:32:01 10° N
STARLINK-1319 3.6 02:23:58 10° SW 02:28:06 75° SSE 02:32:15 10° ENE
STARLINK-1322 3.0 02:24:58 10° WNW 02:28:06 79° NNE 02:31:13 10° ESE
STARLINK-1324 3.0 02:25:18 10° WNW 02:28:26 80° NNE 02:31:33 10° ESE
STARLINK-1294 3.0 02:25:34 10° WNW 02:28:44 80° NNE 02:31:52 10° ESE
STARLINK-1261 3.0 02:25:58 10° WNW 02:29:06 80° NNE 02:32:13 10° ESE
STARLINK-1325 3.0 02:26:19 10° WNW 02:29:27 81° NNE 02:32:34 10° ESE
STARLINK-1333 3.0 02:26:40 10° WNW 02:29:48 81° NNE 02:32:56 10° ESE
STARLINK-1334 3.0 02:26:59 10° WNW 02:30:08 82° NNE 02:33:15 10° ESE
STARLINK-1326 2.9 02:27:20 10° WNW 02:30:28 82° NNE 02:33:36 10° ESE
STARLINK-1323 2.9 02:27:40 10° WNW 02:30:48 82° NNE 02:33:56 10° ESE
Cosmos 2341 Rocket 4.1 02:24:42 10° SSW 02:31:04 74° W 02:37:25 10° N
STARLINK-1349 2.9 02:27:59 10° WNW 02:31:07 83° NNE 02:34:14 10° ESE
STARLINK-1336 2.9 02:28:19 10° WNW 02:31:28 83° NNE 02:34:35 10° ESE
STARLINK-1331 2.9 02:28:41 10° WNW 02:31:49 83° NNE 02:34:56 10° ESE
STARLINK-1353 3.8 02:28:07 10° WNW 02:32:05 72° NNE 02:36:01 10° ESE
STARLINK-1344 2.9 02:29:00 10° WNW 02:32:08 84° NNE 02:35:15 10° ESE
STARLINK-1343 2.9 02:29:21 10° WNW 02:32:30 84° NNE 02:35:37 10° ESE
STARLINK-1346 2.9 02:29:40 10° WNW 02:32:49 85° NNE 02:35:59 10° ESE
CZ-2D R/B 3.4 02:28:28 10° N 02:32:50 28° WNW 02:37:11 10° WSW
Cosmos 1933 4.5 02:28:54 10° N 02:32:50 46° ENE 02:36:42 10° SSE
COBE Rocket 4.0 02:27:55 10° S 02:32:58 69° W 02:38:09 10° NNW
STARLINK-1277 3.6 02:28:55 10° WSW 02:33:04 80° SSE 02:37:13 10° ENE
STARLINK-1328 2.9 02:30:03 10° WNW 02:33:11 85° NNE 02:36:18 10° ESE
STARLINK-1354 2.9 02:30:22 10° WNW 02:33:31 85° NNE 02:36:38 10° ESE
STARLINK-1347 2.9 02:30:41 10° WNW 02:33:49 86° NNE 02:36:56 10° ESE
STARLINK-1357 2.9 02:31:04 10° WNW 02:34:12 86° NNE 02:37:19 10° ESE
STARLINK-1335 2.9 02:31:23 10° WNW 02:34:31 87° NNE 02:37:38 10° ESE
STARLINK-1327 2.9 02:31:44 10° WNW 02:34:51 87° NNE 02:37:59 10° ESE
STARLINK-69 4.4 02:31:46 10° SSW 02:35:03 32° SE 02:38:20 10° ENE
STARLINK-1340 2.9 02:32:04 10° WNW 02:35:12 87° NNE 02:38:20 10° ESE
STARLINK-1356 2.9 02:32:25 10° WNW 02:35:33 88° NNE 02:38:40 10° ESE
STARLINK-1345 2.9 02:32:45 10° WNW 02:35:52 88° NNE 02:39:00 10° ESE
STARLINK-1355 2.9 02:33:04 10° WNW 02:36:12 89° NNE 02:39:19 10° ESE
STARLINK-1375 3.8 02:32:19 10° WNW 02:36:16 74° NNE 02:40:13 10° ESE
STARLINK-21 4.5 02:33:18 10° SSW 02:36:32 31° SE 02:39:47 10° ENE
STARLINK-1321 2.9 02:33:23 10° WNW 02:36:33 88° ENE 02:39:39 10° ESE
STARLINK-1358 2.9 02:33:46 10° WNW 02:36:54 89° N 02:40:02 10° ESE
STARLINK-1332 2.9 02:34:05 10° WNW 02:37:13 90° E 02:40:20 10° ESE
STARLINK-1348 2.8 02:34:25 10° WNW 02:37:33 90° SE 02:40:40 10° ESE
STARLINK-1330 2.8 02:34:46 10° WNW 02:37:54 89° S 02:41:01 10° ESE
STARLINK-1276 3.6 02:33:55 10° WSW 02:38:04 85° SSE 02:42:13 10° ENE
STARLINK-1363 2.8 02:35:05 10° WNW 02:38:12 89° SSW 02:41:19 10° ESE
STARLINK-45 4.3 02:35:00 10° SSW 02:38:18 34° SE 02:41:39 10° ENE
STARLINK-1337 2.8 02:35:26 10° WNW 02:38:34 89° SSW 02:41:42 10° ESE
CZ-4C R/B 4.4 02:34:00 10° WNW 02:38:42 25° NNW 02:44:07 10° NE
STARLINK-1342 2.8 02:35:47 10° WNW 02:38:55 88° SSW 02:42:03 10° ESE
STARLINK-66 4.4 02:35:56 10° WNW 02:38:58 37° N 02:42:00 10° ENE
STARLINK-1364 2.8 02:36:07 10° WNW 02:39:15 88° SSW 02:42:23 10° ESE
Landsat 5 4.0 02:34:57 10° SSE 02:39:27 74° ENE 02:43:54 10° N
STARLINK-1297 4.2 02:36:01 10° W 02:39:28 46° N 02:42:55 10° ENE
STARLINK-1376 2.8 02:36:27 10° WNW 02:39:36 87° SSW 02:42:43 10° ESE
STARLINK-70 4.3 02:36:30 10° SSW 02:39:48 34° SE 02:43:06 10° ENE
STARLINK-1360 2.8 02:36:48 10° WNW 02:39:56 87° SSW 02:43:04 10° ESE
STARLINK-1361 2.8 02:37:09 10° WNW 02:40:16 87° SW 02:43:24 10° ESE
STARLINK-1350 3.7 02:36:28 10° WNW 02:40:26 78° NNE 02:44:22 10° ESE
STARLINK-1306 3.7 02:36:16 10° WSW 02:40:28 90° SSE 02:44:41 10° ENE
STARLINK-1367 2.8 02:37:26 10° WNW 02:40:36 86° SSW 02:43:45 10° ESE
STARLINK-1268 4.1 02:37:58 10° W 02:40:55 39° N 02:43:51 10° ENE
STARLINK-1366 2.8 02:37:48 10° WNW 02:40:56 86° SSW 02:44:03 10° ESE
Cosmos 2278 Rocket 4.4 02:36:22 10° NNW 02:41:25 31° NE 02:46:26 10° ESE
STARLINK-76 4.4 02:38:07 10° SSW 02:41:25 34° SE 02:44:44 10° ENE
STARLINK-1305 3.6 02:38:51 10° WSW 02:43:00 89° SE 02:47:10 10° ENE
STARLINK-23 4.3 02:39:44 10° SSW 02:43:03 35° SE 02:46:23 10° ENE
STARLINK-52 3.6 02:40:54 10° WNW 02:43:51 33° SW 02:46:46 10° SSE
STARLINK-58 4.0 02:41:02 10° W 02:44:07 44° NNW 02:47:11 10° ENE
STARLINK-32 4.3 02:41:20 10° SSW 02:44:39 36° SE 02:48:00 10° ENE
STARLINK-1352 3.6 02:40:42 10° WNW 02:44:41 81° NNE 02:48:38 10° ESE
STARLINK-1316 4.2 02:41:47 10° W 02:44:45 39° N 02:47:43 10° ENE
Cosmos 2360 Rocket 2.3 02:41:44 10° SSW 02:47:22 87° WNW 02:53:03 10° NNE
